STARLINK-34524

Last updated on Thu Jul 03 2025 00:02:07 GMT+0000 (Coordinated Universal Time)

1 64431U 25129V 25183.58335648 -.01554429 00000+0 -18447-1 0 9994 2 64431 69.9998 351.5389 0003372 265.0031 43.0506 15.63973683 3570
UTC large
Height (km)
Speed (km/s)
/
Latitude / Longitude
Inclination (degrees)
Orbital Period (minutes)
Azimuth
Elevation
Range (km)
Doppler Factor

Next 0 passes for location: London (51.5072 / 0.1276)

Sorry there are no passes over London.